Back to catalog

FENGYUN 1C DEB

AliveSSO
NORAD 37921·DEBRIS·🇨🇳 China

Launched May 10, 1999 from Taiyuan Satellite Launch Center

Loading…

Next Passes (next 24 hours)

TLE

AgingSource: Space-Track

Epoch: Sep 9, 2026, 22:27 UTC

1 37921U 99025ENW 26252.93610384 -.00000075  00000-0 -23450-4 0  9990
2 37921  98.9894 292.6455 0084361  75.6143 285.4364 13.95293209669299

Track FENGYUN 1C DEB in real time with AllMySat

Download on the App Store